DELTA 1 DEB, 25270

Orbit data source: Space-Track

DELTA 1 DEB, 25270 is space debris in LEO originally from a launch on Thu, 04 Jul 1968 UTC launched from the Air Force Western Test Range (AFWTR). Debris objects in space refer to the collection of defunct objects orbiting the Earth. Examples of debris include non-operational satellites, rocket bodies, and fragments generated from explosions, collisions, or faulty payload assembly.

Loading next visibility...
Identifier
25270, 1968-055E
Orbit
LEO
Country
Flag of USUS
Related business
Manufacturer
Unknown
Mission
Spacecraft
Bus & Motor
Unknown
Mass
Unknown
Launch date (UTC)
1968-07-04 (58 years ago)
Launch vehicle
Unknown
Launch site
Air Force Western Test Range (AFWTR)
Object type
Payload
Rocket body
Debris
Shape & HBR
Unknown shape, 0.1 m
Radar Cross Section
Medium (>0.1 m² and <1 m²)

Expand to show TLE details & history
Last TLE update: 1 week ago

TLE from 1 week ago
0 DELTA 1 DEB
1 25270U 68055E   26249.65332789  .00001128  00000-0  20326-2 0  9993
2 25270 120.5294 157.5829 2229414 358.6782   0.8874 10.04720668453093
Epoch: 2026-09-06T15:40Z
TLE epoch observation values (Epoch: 2026-09-06T15:40:47.529Z)
Latitude
-0.00003°
Longitude
-63.36048°
Altitude
672.944 km
Speed
8.316 km/s
True Right ascension
10h 30m 19s
True Declination
0° 00' 00"
Sunlit
Object was in daylight at epoch
Visualization orbit readout
Latitude
Unknown
Longitude
Unknown
Altitude
Unknown
Speed
Unknown
Apparent Right ascension
Unknown
Apparent Declination
Unknown
Sunlit
N/A
Visualization observer readout
Local Sidereal Time
16:03:10
Azimuth
Unknown
Elevation
Unknown
Doppler factor
Unknown
Orbital elements
Apogee altitude
4,715.719 km
Perigee altitude
670.914 km
Semi-major axis
9,071.454 km
Eccentricity
0.22294
Inclination
120.5294°
RAAN
157.5829°
Arg. of periapsis
358.6782°
True anomaly
1.4326°
Mean anomaly
0.8874°
Eccentric anomaly
1.14198°
Mean motion
2.51205 °/min
Orbital period
143.31 mins
BSTAR
0.0020326
Loading maneuver chart data...
Computing Atmospheric mass density...
Loading historical data...
Loading historical data...
Loading historical data...
Loading historical data...
Loading historical data...
Loading historical data...
Loading historical data...

Documentation

Showing up to 5 results
|